When you browse on this site, cookies collect data to enhance your experience and personalize the content and advertising you see.
Visit our Privacy Policy to learn more. By continuing to use the site, you agree to this use of cookies and data.
  • In Netherlands
  • List of Countries
  • For 7 days
  • Water Temperature
  • Weather Map
  • Weather Widgets
  • user-avatar
    Login

    Hourly Weather Cambridge

    Today, 18 August, Sunday

    Time Temperature Precipitation Wind Pressure Humidity
    00:00 +16°C° 0 mm 3 mps 751 mmHg 80%
    01:00 +14°C° 0 mm 3 mps 751 mmHg 83%
    02:00 +14°C° 0 mm 3 mps 751 mmHg 86%
    03:00 +13°C° 0 mm 3 mps 750 mmHg 89%
    04:00 +13°C° 0 mm 3 mps 750 mmHg 87%
    05:00 +14°C° 0 mm 3 mps 750 mmHg 86%
    06:00 +14°C° 0 mm 3 mps 750 mmHg 84%
    07:00 +14°C° 0 mm 4 mps 750 mmHg 81%
    08:00 +15°C° 0 mm 4 mps 750 mmHg 79%
    09:00 +15°C° 0 mm 5 mps 751 mmHg 76%
    10:00 +17°C° 0.2 mm 6 mps 751 mmHg 69%
    11:00 +18°C° 0.2 mm 7 mps 751 mmHg 62%
    12:00 +20°C° 0.2 mm 8 mps 751 mmHg 55%
    13:00 +20°C° 0 mm 8 mps 751 mmHg 55%
    14:00 +21°C° 0 mm 8 mps 751 mmHg 55%
    15:00 +21°C° 0 mm 8 mps 752 mmHg 55%
    16:00 +20°C° 0.1 mm 8 mps 752 mmHg 58%
    17:00 +18°C° 0.1 mm 7 mps 752 mmHg 61%
    18:00 +19°C° 0.1 mm 6 mps 752 mmHg 64%
    19:00 +16°C° 0 mm 6 mps 753 mmHg 66%
    20:00 +15°C° 0 mm 6 mps 753 mmHg 69%
    21:00 +14°C° 0 mm 5 mps 754 mmHg 72%
    22:00 +14°C° 0 mm 6 mps 754 mmHg 74%
    23:00 +13°C° 0 mm 6 mps 754 mmHg 75%

    Tomorrow, 19 August, Monday

    Time Temperature Precipitation Wind Pressure Humidity
    00:00 +13°C° 0 mm 6 mps 754 mmHg 77%
    01:00 +13°C° 0 mm 6 mps 755 mmHg 80%
    02:00 +13°C° 0 mm 6 mps 755 mmHg 82%
    03:00 +12°C° 0 mm 5 mps 756 mmHg 84%
    04:00 +12°C° 0 mm 5 mps 756 mmHg 86%
    05:00 +12°C° 0 mm 5 mps 756 mmHg 87%
    06:00 +12°C° 0 mm 5 mps 757 mmHg 89%
    07:00 +14°C° 0 mm 5 mps 757 mmHg 82%
    08:00 +15°C° 0 mm 5 mps 757 mmHg 75%
    09:00 +17°C° 0 mm 5 mps 758 mmHg 68%
    10:00 +19°C° 0.2 mm 5 mps 758 mmHg 65%
    11:00 +19°C° 0.2 mm 5 mps 758 mmHg 62%
    12:00 +20°C° 0.2 mm 6 mps 758 mmHg 58%
    13:00 +20°C° 0.4 mm 6 mps 758 mmHg 56%
    14:00 +20°C° 0.4 mm 6 mps 758 mmHg 54%
    15:00 +21°C° 0.4 mm 7 mps 759 mmHg 52%
    16:00 +20°C° 0 mm 6 mps 759 mmHg 55%
    17:00 +19°C° 0 mm 5 mps 759 mmHg 58%
    18:00 +18°C° 0 mm 4 mps 759 mmHg 61%
    19:00 +17°C° 0 mm 4 mps 760 mmHg 66%
    20:00 +15°C° 0 mm 4 mps 760 mmHg 71%
    21:00 +14°C° 0 mm 4 mps 761 mmHg 75%
    22:00 +13°C° 0 mm 3 mps 761 mmHg 78%
    23:00 +13°C° 0 mm 3 mps 761 mmHg 81%

    Day after tomorrow, 20 August, Tuesday

    Time Temperature Precipitation Wind Pressure Humidity
    00:00 +12°C° 0 mm 3 mps 762 mmHg 83%
    01:00 +12°C° 0 mm 3 mps 762 mmHg 85%
    02:00 +11°C° 0 mm 3 mps 762 mmHg 87%
    03:00 +11°C° 0 mm 3 mps 762 mmHg 88%
    04:00 +11°C° 0 mm 3 mps 762 mmHg 88%
    05:00 +11°C° 0 mm 3 mps 763 mmHg 88%
    06:00 +11°C° 0 mm 3 mps 763 mmHg 87%
    07:00 +12°C° 0 mm 4 mps 763 mmHg 80%
    08:00 +14°C° 0 mm 4 mps 764 mmHg 74%
    09:00 +15°C° 0 mm 4 mps 764 mmHg 67%
    10:00 +16°C° 0 mm 5 mps 765 mmHg 62%
    11:00 +17°C° 0 mm 5 mps 765 mmHg 58%
    12:00 +19°C° 0 mm 5 mps 765 mmHg 53%
    13:00 +19°C° 0 mm 5 mps 765 mmHg 53%
    14:00 +19°C° 0 mm 5 mps 765 mmHg 52%
    15:00 +20°C° 0 mm 5 mps 765 mmHg 51%
    16:00 +20°C° 0 mm 4 mps 765 mmHg 54%
    17:00 +19°C° 0 mm 3 mps 766 mmHg 58%
    18:00 +19°C° 0 mm 2 mps 766 mmHg 61%
    19:00 +18°C° 0 mm 2 mps 767 mmHg 68%
    20:00 +16°C° 0 mm 2 mps 767 mmHg 74%
    21:00 +15°C° 0 mm 2 mps 768 mmHg 80%
    22:00 +15°C° 0 mm 2 mps 768 mmHg 84%
    23:00 +13°C° 0 mm 3 mps 768 mmHg 87%

    21 August, Wednesday

    Time Temperature Precipitation Wind Pressure Humidity
    00:00 +13°C° 0 mm 3 mps 768 mmHg 91%
    01:00 +13°C° 0 mm 2 mps 767 mmHg 91%
    02:00 +13°C° 0 mm 2 mps 767 mmHg 92%
    03:00 +13°C° 0 mm 2 mps 767 mmHg 93%
    04:00 +13°C° 0 mm 2 mps 768 mmHg 92%
    05:00 +13°C° 0 mm 2 mps 768 mmHg 91%
    06:00 +14°C° 0 mm 2 mps 768 mmHg 90%
    07:00 +14°C° 0 mm 3 mps 768 mmHg 84%
    08:00 +17°C° 0 mm 3 mps 768 mmHg 78%
    09:00 +18°C° 0 mm 3 mps 768 mmHg 72%
    10:00 +19°C° 0 mm 4 mps 768 mmHg 66%
    11:00 +21°C° 0 mm 4 mps 768 mmHg 59%
    12:00 +22°C° 0 mm 4 mps 768 mmHg 53%
    13:00 +22°C° 0 mm 4 mps 767 mmHg 52%
    14:00 +22°C° 0 mm 5 mps 767 mmHg 50%
    15:00 +23°C° 0 mm 5 mps 767 mmHg 49%
    16:00 +22°C° 0 mm 4 mps 767 mmHg 54%
    17:00 +21°C° 0 mm 4 mps 767 mmHg 58%
    18:00 +20°C° 0 mm 3 mps 767 mmHg 63%
    19:00 +19°C° 0 mm 3 mps 767 mmHg 67%
    20:00 +18°C° 0 mm 3 mps 767 mmHg 71%
    21:00 +17°C° 0 mm 3 mps 767 mmHg 74%
    22:00 +16°C° 0 mm 3 mps 767 mmHg 78%
    23:00 +16°C° 0 mm 3 mps 767 mmHg 82%

    22 August, Thursday

    Time Temperature Precipitation Wind Pressure Humidity
    00:00 +14°C° 0 mm 3 mps 767 mmHg 85%
    01:00 +14°C° 0 mm 3 mps 767 mmHg 87%
    02:00 +13°C° 0 mm 3 mps 767 mmHg 88%
    03:00 +13°C° 0 mm 3 mps 767 mmHg 89%
    04:00 +13°C° 0 mm 3 mps 767 mmHg 89%
    05:00 +13°C° 0 mm 3 mps 767 mmHg 89%
    06:00 +13°C° 0 mm 3 mps 767 mmHg 89%
    07:00 +16°C° 0 mm 3 mps 768 mmHg 82%
    08:00 +17°C° 0 mm 3 mps 768 mmHg 75%
    09:00 +18°C° 0 mm 4 mps 768 mmHg 68%
    10:00 +19°C° 0 mm 4 mps 768 mmHg 64%
    11:00 +20°C° 0 mm 3 mps 768 mmHg 60%
    12:00 +21°C° 0 mm 3 mps 768 mmHg 56%
    13:00 +22°C° 0 mm 3 mps 768 mmHg 56%
    14:00 +22°C° 0 mm 3 mps 767 mmHg 55%
    15:00 +24°C° 0 mm 3 mps 767 mmHg 54%
    16:00 +23°C° 0 mm 2 mps 767 mmHg 57%
    17:00 +23°C° 0 mm 2 mps 767 mmHg 59%
    18:00 +21°C° 0 mm 2 mps 767 mmHg 62%
    19:00 +21°C° 0 mm 1 mps 767 mmHg 65%
    20:00 +20°C° 0 mm 1 mps 768 mmHg 67%
    21:00 +19°C° 0 mm 1 mps 768 mmHg 70%
    22:00 +18°C° 0 mm 1 mps 768 mmHg 71%
    23:00 +18°C° 0 mm 1 mps 768 mmHg 72%

    23 August, Friday

    Time Temperature Precipitation Wind Pressure Humidity
    00:00 +16°C° 0 mm 1 mps 768 mmHg 73%
    01:00 +16°C° 0 mm 1 mps 767 mmHg 74%
    02:00 +15°C° 0 mm 1 mps 767 mmHg 76%
    03:00 +15°C° 0 mm 2 mps 767 mmHg 77%
    04:00 +15°C° 0 mm 2 mps 767 mmHg 77%
    05:00 +15°C° 0 mm 2 mps 767 mmHg 77%
    06:00 +15°C° 0 mm 2 mps 767 mmHg 77%
    07:00 +17°C° 0 mm 2 mps 767 mmHg 69%
    08:00 +19°C° 0 mm 3 mps 767 mmHg 62%
    09:00 +21°C° 0 mm 3 mps 767 mmHg 54%
    10:00 +24°C° 0 mm 3 mps 766 mmHg 50%
    11:00 +25°C° 0 mm 4 mps 766 mmHg 47%
    12:00 +26°C° 0 mm 4 mps 766 mmHg 43%
    13:00 +26°C° 0 mm 4 mps 765 mmHg 42%
    14:00 +27°C° 0 mm 4 mps 765 mmHg 42%
    15:00 +27°C° 0 mm 4 mps 764 mmHg 41%
    16:00 +26°C° 0 mm 4 mps 764 mmHg 47%
    17:00 +25°C° 0 mm 4 mps 764 mmHg 52%
    18:00 +24°C° 0 mm 3 mps 763 mmHg 57%
    19:00 +21°C° 0 mm 3 mps 763 mmHg 62%
    20:00 +20°C° 0 mm 3 mps 763 mmHg 67%
    21:00 +18°C° 0 mm 3 mps 763 mmHg 71%
    22:00 +18°C° 0 mm 3 mps 763 mmHg 73%
    23:00 +18°C° 0 mm 3 mps 763 mmHg 75%
    Show more